Find Starlink 35124

NORAD ID: 65511 Int'l Des: 2025-198 Owner: SPXS Country: US Constellation: starlink operational
LEOCIRCULAR

实时位置

正在加载3D地球...

关于 Starlink 35124

正在加载描述...

即将过境

Passes for default location (London). Set your location on the main map for personalized predictions.

高度历史

Loading altitude history...

两行轨道根数

1 65511U 25198V 26104.28573886 -.00006103 00000-0 -19417-3 0 9990
2 65511 53.1580 105.3958 0001030 84.7609 275.3509 15.30188286 34067
Epoch: Apr 14, 2026 • Age: 26 hours

当前状态

高度 475.3 km
速度 7.63 km/s
星下点 13.10°N, 62.86°W
发射日期 Sep 5, 2025
运行时间 0.6 years
类型 internet

技术详情

分类 Payload
质量 575.00 kg
干质量 530.00 kg
总质量 575.00 kg
长度 0.30 m
直径 4.10 m
跨度 29.00 m
形状 Box + pan
制造商 SPXS
平台类型 Starlink V2MO
阶段状态 In Orbit
所有者/国家 SPXS/US

Most Searched